CW3066 Weather Reports


time (UTC)temp
F
wind
direction
speed
knots
gust
knots
rain 1hr
in
rain 24hr
in
rain mn
in
humidity
%
barometer
mb
20260508094505 37 253 0.0 0.0 0.00 0.00 0.00 94 1010.5
20260508093003 37 253 0.0 0.0 0.00 0.00 0.00 94 1010.4
20260508091503 38 253 0.0 0.0 0.00 0.00 0.00 93 1010.5
20260508084559 38 253 0.0 0.0 0.00 0.00 0.00 93 1010.6
20260508083058 38 298 0.0 0.0 0.00 0.00 0.00 93 1010.6
20260508081618 38 336 0.0 0.0 0.00 0.00 0.00 93 1010.5
20260508080056 38 340 0.0 0.0 0.00 0.00 0.00 93 1010.6
20260508074554 39 343 0.0 0.0 0.00 0.00 0.00 92 1010.5
20260508073053 39 344 0.0 0.0 0.00 0.00 0.00 92 1010.4
20260508071557 39 346 0.0 0.0 0.00 0.00 0.00 92 1010.5
20260508070054 40 346 0.0 0.0 0.00 0.00 0.00 92 1010.6
20260508064550 40 347 0.0 0.0 0.00 0.00 0.00 91 1010.6
20260508063057 40 347 0.0 0.0 0.00 0.00 0.00 90 1010.5
20260508061553 40 348 0.0 0.0 0.00 0.00 0.00 90 1010.4
20260508060052 40 348 0.0 0.0 0.00 0.00 0.00 90 1010.6
20260508054544 41 348 0.0 0.0 0.00 0.00 0.00 89 1010.8
20260508053043 41 348 0.0 0.0 0.00 0.00 0.00 88 1010.8
20260508051540 42 348 0.0 0.0 0.00 0.00 0.00 87 1010.8
20260508050042 42 317 0.0 0.0 0.00 0.00 0.00 86 1010.7
20260508044537 42 339 0.0 0.0 0.00 0.00 0.00 85 1010.6
20260508043035 43 343 0.0 0.0 0.00 0.00 0.00 84 1010.6
20260508041535 43 346 0.0 0.0 0.00 0.00 0.00 83 1010.6
20260508040038 43 348 0.0 0.0 0.00 0.00 0.00 81 1010.6
20260508034533 44 348 0.0 0.0 0.00 0.00 0.00 78 1010.7
20260508033032 45 349 0.0 0.0 0.00 0.00 0.00 75 1010.7
20260508031536 45 350 0.0 0.0 0.00 0.00 0.00 72 1010.9
20260508030031 46 350 0.0 0.0 0.00 0.00 0.00 69 1010.7
20260508024544 47 350 0.0 0.0 0.00 0.00 0.00 68 1010.6
20260508023032 48 350 0.0 0.0 0.00 0.00 0.00 64 1010.6
20260508021530 49 350 0.0 0.0 0.00 0.00 0.00 61 1010.5
20260508020029 50 351 0.0 0.0 0.00 0.00 0.00 56 1010.4
20260508014532 51 351 0.0 0.0 0.00 0.00 0.00 52 1010.0
20260508013028 53 351 0.0 0.0 0.00 0.00 0.00 49 1010.0
20260508011527 54 351 0.0 0.0 0.00 0.00 0.00 44 1009.8
20260508010033 55 351 0.0 0.0 0.00 0.00 0.00 41 1009.4
20260508004526 57 351 0.0 0.9 0.00 0.00 0.00 37 1009.4
20260508003025 58 351 0.0 0.0 0.00 0.00 0.00 34 1009.4
20260508001526 59 351 0.0 2.6 0.00 0.00 0.00 30 1009.1
20260508000024 60 355 0.0 2.6 0.00 0.00 0.00 30 1009.1
20260507234525 61 355 0.0 3.5 0.00 0.00 0.00 28 1008.9
20260507233036 62 355 0.0 3.5 0.00 0.00 0.00 27 1009.0
20260507231532 64 351 0.9 2.6 0.00 0.00 0.00 25 1009.0
20260507230022 64 355 0.0 3.5 0.00 0.00 0.00 25 1009.0
20260507224521 64 351 0.9 4.3 0.00 0.00 0.00 25 1008.9
20260507223021 64 351 0.9 5.2 0.00 0.00 0.00 25 1008.9
20260507221532 64 355 0.0 6.1 0.00 0.00 0.00 26 1009.0
20260507220021 64 355 0.0 2.6 0.00 0.00 0.00 27 1008.9
20260507214520 63 355 0.0 6.1 0.00 0.00 0.00 25 1008.9
20260507213018 63 355 0.0 6.1 0.00 0.00 0.00 27 1008.8
20260507211523 65 355 0.9 3.5 0.00 0.00 0.00 24 1008.7
20260507210017 65 355 0.0 3.5 0.00 0.00 0.00 24 1008.6
20260507204514 64 287 1.7 5.2 0.00 0.00 0.00 25 1008.7
20260507203014 63 355 0.9 4.3 0.00 0.00 0.00 26 1008.6
20260507201513 63 351 0.0 3.5 0.00 0.00 0.00 28 1008.7
20260507200012 63 355 1.7 5.2 0.00 0.00 0.00 28 1008.9
20260507194512 63 355 0.0 4.3 0.00 0.00 0.00 27 1009.0
20260507193009 62 355 0.0 5.2 0.00 0.00 0.00 29 1009.0
20260507191507 62 355 1.7 5.2 0.00 0.00 0.00 31 1009.0
20260507190008 61 355 0.9 4.3 0.00 0.00 0.00 31 1009.3
20260507184507 61 355 1.7 4.3 0.00 0.00 0.00 30 1009.3
20260507183010 61 355 0.9 6.1 0.00 0.00 0.00 32 1009.3
20260507181504 61 350 0.9 5.2 0.00 0.00 0.00 33 1009.4
20260507180003 60 351 0.9 7.0 0.00 0.00 0.00 32 1009.2
20260507174502 60 351 1.7 5.2 0.00 0.00 0.00 34 1009.5
20260507173104 60 355 0.9 3.5 0.00 0.00 0.00 37 1009.6
20260507171605 59 355 0.9 6.1 0.00 0.00 0.00 34 1010.0
20260507170103 59 351 0.9 6.1 0.00 0.00 0.00 36 1010.4
20260507164603 59 355 0.9 5.2 0.00 0.00 0.00 34 1010.1
20260507163057 59 351 2.6 5.2 0.00 0.00 0.00 34 1010.2
20260507161555 59 355 0.9 3.5 0.00 0.00 0.00 36 1010.3
20260507160056 58 355 0.0 5.2 0.00 0.00 0.00 39 1010.5
20260507154558 58 351 0.0 3.5 0.00 0.00 0.00 38 1010.4
20260507153053 59 351 0.0 3.5 0.00 0.00 0.00 38 1010.2
20260507151552 58 344 0.0 2.6 0.00 0.00 0.00 40 1010.2
20260507150050 57 355 0.9 5.2 0.00 0.00 0.00 39 1010.1
20260507144548 56 355 0.0 1.7 0.00 0.00 0.00 41 1010.1
20260507143052 56 355 0.0 1.7 0.00 0.00 0.00 42 1010.1
20260507141548 55 355 0.0 5.2 0.00 0.00 0.00 43 1010.3
20260507140044 53 355 0.9 3.5 0.00 0.00 0.00 46 1010.1
20260507134541 53 355 0.0 2.6 0.00 0.00 0.00 47 1010.1
20260507133058 52 355 0.9 5.2 0.00 0.00 0.00 48 1010.3
20260507131549 51 355 0.0 3.5 0.00 0.00 0.00 51 1010.2
20260507130054 50 355 0.0 2.6 0.00 0.00 0.00 53 1010.3
20260507124538 50 355 0.0 3.5 0.00 0.00 0.00 53 1010.4
20260507123037 49 326 0.0 4.3 0.00 0.00 0.00 55 1010.6
20260507121535 48 325 0.0 2.6 0.00 0.00 0.00 61 1010.4
20260507120042 47 355 0.0 1.7 0.00 0.00 0.00 70 1010.4
20260507114550 45 355 0.0 2.6 0.00 0.00 0.00 80 1010.2
20260507113031 44 340 0.0 1.7 0.00 0.00 0.00 90 1010.1
20260507111534 42 340 0.0 0.0 0.00 0.00 0.00 92 1010.0
20260507110027 42 340 0.0 0.0 0.00 0.00 0.00 91 1009.6
20260507104526 42 340 0.0 0.0 0.00 0.00 0.00 90 1009.4
20260507103024 43 340 0.0 0.0 0.00 0.00 0.00 90 1009.2
20260507101523 43 340 0.0 0.0 0.00 0.04 0.00 89 1009.4
20260507100020 43 340 0.0 0.0 0.00 0.04 0.00 89 1009.3